Home   Weather   Narva   Past weeks

Flag for Estonia Past Weather in Narva, Estonia — Yesterday and Last 2 Weeks

Now
28 °F

Clear.


Feels Like: 25 °F
Forecast: 35 / 42 °F
Wind: 3 mph from Southeast

Location: Narva

Current Time: Apr 25, 2017 at 6:22:03 am

Latest Report: Apr 25, 2017 at 5:00 am


Visibility: 13 mi

Pressure: 29.72 "Hg

Humidity: 94%

Dew Point: 27 °F

Location of NarvaLocation

Past Weather in Narva — Graph

°F

Narva Temperature Yesterday

Maximum temperature yesterday: 43 °F (at 4:00 pm)
Minimum temperature yesterday: 31 °F (at 11:00 pm)
Average temperature yesterday: 36 °F

High & Low Weather Summary for the Past Weeks

 TemperatureHumidityPressure
High59 °F (Apr 10, 6:00 pm)100% (Apr 13, 5:00 am)30.53 "Hg (Apr 13, 5:00 am)
Low15 °F (Apr 16, 6:00 am)36% (Apr 19, 6:00 pm)29.15 "Hg (Apr 22, 9:00 am)
Average33 °F77%29.75 "Hg
* Reported Apr 10 4:00 am — Apr 25 4:00 am, Narva, Weather by CustomWeather, © 2017

Note: Actual official high and low records may vary slightly from our data, if they occured in-between our weather recording intervals... More about our weather records

Advertising

Narva Weather History for the Previous 24 Hours

Scroll right to see more
 ConditionsComfort  
Time TempWeatherWind HumidityBarometerVisibility
4:00 am
Tue, Apr 25
32 °FClear.2 mph92%29.74 "Hg12 mi
3:00 am31 °FClear.2 mph98%29.75 "Hg12 mi
2:00 am30 °FClear.2 mph100%29.76 "Hg12 mi
1:00 am30 °FClear.2 mph100%29.77 "Hg12 mi
12:00 am30 °FClear.1 mph100%29.78 "Hg12 mi
11:00 pm
Mon, Apr 24
31 °FClear.2 mph100%29.78 "Hg12 mi
10:00 pm34 °FClear.2 mph94%29.78 "Hg12 mi
9:00 pm35 °FPassing clouds.1 mph84%29.78 "Hg12 mi
8:00 pm38 °FPassing clouds.3 mph75%29.78 "Hg12 mi
7:00 pm39 °FPassing clouds.3 mph78%29.77 "Hg12 mi
6:00 pm41 °FSunny.2 mph69%29.77 "Hg12 mi
5:00 pm43 °FPartly sunny.3 mph55%29.77 "Hg12 mi
4:00 pm43 °FSunny.5 mph53%29.76 "Hg12 mi
3:00 pm42 °FSunny.5 mph61%29.76 "Hg12 mi
2:00 pm40 °FScattered clouds.1 mph76%29.77 "Hg12 mi
1:00 pm35 °FRain. Low clouds.6 mph88%29.78 "Hg9 mi
12:00 pm39 °FOvercast.3 mph78%29.77 "Hg12 mi
11:00 am39 °FPassing clouds.3 mph74%29.76 "Hg12 mi
10:00 am38 °FPassing clouds.3 mph89%29.75 "Hg12 mi
9:00 am35 °FScattered clouds.3 mph94%29.74 "Hg12 mi
8:00 am34 °FScattered clouds.3 mph96%29.73 "Hg12 mi
7:00 am32 °FPartly sunny.3 mph98%29.72 "Hg12 mi
6:00 am32 °FOvercast.3 mph100%29.72 "Hg12 mi
Weather by CustomWeather, © 2017

See weather overviewHow to use our weather pages